Location: Recife
(8.0585°S, 34.8848°W)
Time: 10:58:20
(UTC-03:00)

Transit 4A - Pass Details

Date: 14 April 2026
Orbit: 861 x 980 km, 66.8° (Epoch: 14 May)

Event Time Altitude Azimuth Distance (km) Brightness Sun altitude
Rises 13:17:03 0° 219° (SW) 3,443 10.9 55.9°
Reaches altitude 10° 13:19:47 10° 229° (SW) 2,508 10.5 55.3°
Maximum altitude 13:24:45 30° 289° (WNW) 1,518 10.5 54.2°
Drops below altitude 10° 13:29:47 10° 348° (NNW) 2,539 10.7 53.1°
Sets 13:32:36 0° 359° (N) 3,492 11.1 52.5°
